Location: Gwatt
(46.7204°N, 7.6223°E)
Time: 21:48:50
(UTC+00:00)

Courier 1B Rocket - Pass Details

Date: 29 January 2021
Orbit: 920 x 1202 km, 28.3° (Epoch: 25 February)

Event Time Altitude Azimuth Distance (km) Brightness Sun altitude
Exits shadow 04:28:53 - 195° (SSW) 2,837 7.3 -25.5°
Reaches altitude 10° 04:30:04 10° 186° (S) 2,678 7.2 -25.3°
Maximum altitude 04:32:14 12° 166° (SSE) 2,575 7.3 -24.9°
Drops below altitude 10° 04:34:27 10° 146° (SE) 2,735 7.8 -24.5°
Sets 04:39:16 0° 117° (ESE) 3,759 9.1 -23.7°
